University AP, Davis, CA, CA

6:46 PM PST on December 13, 2017 (GMT -0800)
University AP, Davis, CA

Weather History for KEDU - May, 2014

Change the Weather History Date:

Sunday, May 18, 2014

  Actual Average (KSMF) Record (KSMF)
Temperature  
Mean Temperature 68 °F -  
Max Temperature 80 °F 82 °F 100 °F (1997)
Min Temperature 57 °F 50 °F 36 °F (1974)
Cooling Degree Days 4    
Growing Degree Days 18 (Base 50)    
Moisture  
Dew Point -31 °F    
Average Humidity 7    
Maximum Humidity 88    
Minimum Humidity 4    
Precipitation  
Precipitation 0.00 in - - ()
Sea Level Pressure  
Sea Level Pressure 29.89 in    
Wind  
Wind Speed 7 mph (SW)    
Max Wind Speed 18 mph    
Max Gust Speed 26 mph    
Visibility 10 miles    
Events      
Averages and records for this station are not official NWS values.
T = Trace of Precipitation, MM = Missing Value Source: NWS Daily Summary

Daily Weather History Graph

Daily Weather History Graph

Search for Another Location

Airport or City:

Trip Planner

Search our weather history database for the weather conditions in past years. The results will help you decide how hot, cold, wet, or windy it might be!

Date:

Astronomy

May. 18, 2014 Rise Set
Actual Time 5:52 AM PDT 8:14 PM PDT
Civil Twilight 5:22 AM PDT 8:44 PM PDT
Nautical Twilight 4:45 AM PDT 9:22 PM PDT
Astronomical Twilight 4:05 AM PDT 10:03 PM PDT
Moon No Moon Rise 9:47 AM PDT (5/18)
Length of Visible Light 15h 21m
Length of Day
14h 21m
Waning Gibbous, 80% of the Moon is Illuminated
May 18
Waning Gibbous
May 21
Last Quarter
May 28
New
Jun 5
First Quarter
Jun 12
Full

Hourly Weather History & Observations

Time (PDT) Temp. Dew Point Humidity Pressure Visibility Wind Dir Wind Speed Gust Speed Precip Events Conditions
12:00 AM 59.0 °F -40.0 °F 4% 29.88 in 10.0 mi SSW 6.9 mph - N/A   Clear
12:20 AM 66.2 °F -36.4 °F 4% 29.88 in 10.0 mi SW 6.9 mph - N/A   Clear
12:40 AM 66.2 °F -36.4 °F 4% 29.89 in 10.0 mi WSW 5.8 mph - N/A   Clear
1:00 AM 64.4 °F -36.4 °F 4% 29.89 in 10.0 mi SSW 4.6 mph - N/A   Clear
1:20 AM 64.4 °F -36.4 °F 4% 29.89 in 10.0 mi SW 5.8 mph - N/A   Clear
1:40 AM 62.6 °F -38.2 °F 4% 29.90 in 10.0 mi SSW 4.6 mph - N/A   Clear
2:00 AM 60.8 °F -38.2 °F 4% 29.90 in 10.0 mi SSW 3.5 mph - N/A   Clear
2:20 AM 59.0 °F -40.0 °F 4% 29.90 in 10.0 mi SSW 4.6 mph - N/A   Clear
2:40 AM 59.0 °F -40.0 °F 4% 29.90 in 10.0 mi WSW 5.8 mph - N/A   Clear
3:00 AM 60.8 °F -38.2 °F 4% 29.90 in 10.0 mi WSW 6.9 mph - N/A   Clear
3:20 AM 62.6 °F -38.2 °F 4% 29.90 in 10.0 mi WSW 4.6 mph - N/A   Clear
3:40 AM 64.4 °F -38.2 °F 4% 29.91 in 10.0 mi SW 5.8 mph - N/A   Clear
4:00 AM 62.6 °F -38.2 °F 4% 29.91 in 10.0 mi WSW 4.6 mph - N/A   Clear
4:20 AM 62.6 °F -38.2 °F 4% 29.91 in 10.0 mi WSW 6.9 mph - N/A   Clear
4:40 AM 62.6 °F -38.2 °F 4% 29.90 in 10.0 mi SSW 5.8 mph - N/A   Clear
5:00 AM 62.6 °F -38.2 °F 4% 29.89 in 10.0 mi SW 6.9 mph - N/A   Clear
5:20 AM 60.8 °F -38.2 °F 4% 29.89 in 10.0 mi SW 5.8 mph - N/A   Clear
5:40 AM 59.0 °F -40.0 °F 4% 29.89 in 10.0 mi SSW 4.6 mph - N/A   Clear
6:00 AM 59.0 °F -40.0 °F 4% 29.89 in 10.0 mi SSW 4.6 mph - N/A   Clear
6:20 AM 57.2 °F -40.0 °F 4% 29.90 in 10.0 mi South 6.9 mph - N/A   Clear
6:40 AM 57.2 °F -41.8 °F 4% 29.90 in 10.0 mi SSE 4.6 mph - N/A   Clear
7:00 AM 57.2 °F -41.8 °F 4% 29.90 in 10.0 mi SSW 6.9 mph - N/A   Clear
7:20 AM 60.8 °F -38.2 °F 4% 29.91 in 10.0 mi WSW 4.6 mph - N/A   Clear
7:40 AM 62.6 °F -38.2 °F 4% 29.91 in 10.0 mi SSW 5.8 mph - N/A   Clear
8:00 AM 62.6 °F -38.2 °F 4% 29.91 in 10.0 mi SSW 5.8 mph - N/A   Clear
8:20 AM 62.6 °F -38.2 °F 4% 29.92 in 10.0 mi SSW 4.6 mph - N/A   Clear
8:40 AM 62.6 °F -38.2 °F 4% 29.93 in 10.0 mi SW 5.8 mph - N/A   Clear
9:00 AM 64.4 °F -36.4 °F 4% 29.93 in 10.0 mi SW 5.8 mph - N/A   Clear
9:20 AM 66.2 °F -36.4 °F 4% 29.93 in 10.0 mi WSW 5.8 mph - N/A   Clear
9:40 AM 66.2 °F -34.6 °F 4% 29.93 in 10.0 mi Calm Calm - N/A   Clear
10:00 AM 68.0 °F -34.6 °F 4% 29.93 in 10.0 mi Calm Calm - N/A   Clear
10:20 AM 68.0 °F -34.6 °F 4% 29.93 in 10.0 mi WSW 3.5 mph - N/A   Clear
10:40 AM 71.6 °F -32.8 °F 4% 29.93 in 10.0 mi WSW 3.5 mph - N/A   Clear
11:00 AM 71.6 °F -32.8 °F 4% 29.93 in 10.0 mi SW 3.5 mph - N/A   Clear
11:20 AM 71.6 °F -32.8 °F 4% 29.92 in 10.0 mi Calm Calm - N/A   Clear
11:40 AM 73.4 °F -31.0 °F 4% 29.92 in 10.0 mi NNE 3.5 mph - N/A   Clear
12:00 PM 75.2 °F -31.0 °F 4% 29.92 in 10.0 mi NNW 9.2 mph - N/A   Clear
12:20 PM 75.2 °F -31.0 °F 4% 29.92 in 10.0 mi WNW 5.8 mph - N/A   Partly Cloudy
12:40 PM 75.2 °F -31.0 °F 4% 29.91 in 10.0 mi South 3.5 mph - N/A   Partly Cloudy
1:00 PM 77.0 °F -29.2 °F 4% 29.91 in 10.0 mi West 5.8 mph - N/A   Partly Cloudy
1:20 PM 77.0 °F -29.2 °F 4% 29.90 in 10.0 mi WNW 6.9 mph - N/A   Clear
1:40 PM 77.0 °F -29.2 °F 4% 29.90 in 10.0 mi North 3.5 mph - N/A   Clear
2:00 PM 77.0 °F -29.2 °F 4% 29.90 in 10.0 mi SSE 4.6 mph - N/A   Partly Cloudy
2:20 PM 75.2 °F -29.2 °F 4% 29.89 in 10.0 mi SE 3.5 mph - N/A   Mostly Cloudy
2:40 PM 77.0 °F -27.4 °F 4% 29.88 in 10.0 mi SW 6.9 mph - N/A   Mostly Cloudy
3:00 PM 78.8 °F -27.4 °F 4% 29.87 in 10.0 mi SSW 12.7 mph 18.4 mph N/A   Partly Cloudy
3:20 PM 77.0 °F -27.4 °F 4% 29.87 in 10.0 mi SSW 15.0 mph 19.6 mph N/A   Scattered Clouds
3:40 PM 77.0 °F -29.2 °F 4% 29.86 in 10.0 mi South 16.1 mph 23.0 mph N/A   Mostly Cloudy
4:00 PM 80.6 °F -27.4 °F 4% 29.86 in 10.0 mi WSW 11.5 mph - N/A   Mostly Cloudy
4:20 PM 80.6 °F -27.4 °F 4% 29.85 in 10.0 mi SW 16.1 mph 26.5 mph N/A   Scattered Clouds
4:40 PM 78.8 °F -27.4 °F 4% 29.85 in 10.0 mi SW 11.5 mph 24.2 mph N/A   Clear
5:00 PM 77.0 °F -27.4 °F 4% 29.85 in 10.0 mi SW 17.3 mph 23.0 mph N/A   Clear
5:20 PM 77.0 °F -29.2 °F 4% 29.85 in 10.0 mi SSW 18.4 mph 23.0 mph N/A   Clear
5:40 PM 77.0 °F -29.2 °F 4% 29.85 in 10.0 mi SW 18.4 mph 24.2 mph N/A   Clear
6:00 PM 75.2 °F -29.2 °F 4% 29.85 in 10.0 mi SSW 16.1 mph 24.2 mph N/A   Clear
6:20 PM 75.2 °F -29.2 °F 4% 29.84 in 10.0 mi SW 16.1 mph 20.7 mph N/A   Clear
6:40 PM 75.2 °F -29.2 °F 4% 29.84 in 10.0 mi SSW 13.8 mph 18.4 mph N/A   Clear
7:00 PM 75.2 °F -29.2 °F 4% 29.84 in 10.0 mi SW 10.4 mph - N/A   Clear
7:20 PM 75.2 °F -31.0 °F 4% 29.84 in 10.0 mi SW 10.4 mph - N/A   Clear
7:40 PM 71.6 °F -31.0 °F 4% 29.84 in 10.0 mi SSW 10.4 mph 16.1 mph N/A   Clear
8:00 PM 69.8 °F -34.6 °F 4% 29.84 in 10.0 mi SSW 10.4 mph - N/A   Clear
8:20 PM 66.2 °F -34.6 °F 4% 29.84 in 10.0 mi SSW 9.2 mph - N/A   Clear
8:40 PM 66.2 °F -36.4 °F 4% 29.85 in 10.0 mi SSW 8.1 mph - N/A   Clear
9:00 PM 64.4 °F -36.4 °F 4% 29.85 in 10.0 mi SW 6.9 mph - N/A   Clear
9:20 PM 62.6 °F -38.2 °F 4% 29.86 in 10.0 mi SSW 5.8 mph - N/A   Clear
9:40 PM 60.8 °F -38.2 °F 4% 29.86 in 10.0 mi SSW 5.8 mph - N/A   Clear
10:00 PM 60.8 °F -38.2 °F 4% 29.87 in 10.0 mi South 8.1 mph - N/A   Clear
10:20 PM 59.0 °F -38.2 °F 4% 29.87 in 10.0 mi South 5.8 mph - N/A   Clear
10:40 PM 57.2 °F 35.6 °F 44% 29.88 in 10.0 mi South 4.6 mph - N/A   Clear
11:20 PM 57.2 °F 53.6 °F 88% 29.88 in 10.0 mi South 6.9 mph - N/A   Clear
11:40 PM 57.2 °F 53.6 °F 88% 29.88 in 10.0 mi South 8.1 mph - N/A   Clear